Princeton, MN

10:03 AM CST on November 21, 2017 (GMT -0600)
Princeton Municipal

Weather History for KPNM - September, 2013

Change the Weather History Date:

Monday, September 2, 2013

  Actual Average Record
Temperature  
Mean Temperature 58 °F -  
Max Temperature 68 °F 75 °F 87 °F (2003)
Min Temperature 48 °F 52 °F 6 °F (1998)
Degree Days  
Heating Degree Days 7    
Growing Degree Days 8 (Base 50)    
Moisture  
Dew Point 50 °F    
Average Humidity 77    
Maximum Humidity 94    
Minimum Humidity 52    
Precipitation  
Precipitation 0.00 in - - ()
Sea Level Pressure  
Sea Level Pressure 30.06 in    
Wind  
Wind Speed 4 mph (NNW)    
Max Wind Speed 8 mph    
Max Gust Speed -    
Visibility 10 miles    
Events Rain    
Averages and records for this station are not official NWS values.
T = Trace of Precipitation, MM = Missing Value Source: NWS Daily Summary

Daily Weather History Graph

Daily Weather History Graph

Search for Another Location

Airport or City:

Trip Planner

Search our weather history database for the weather conditions in past years. The results will help you decide how hot, cold, wet, or windy it might be!

Date:

Astronomy

Sep. 02, 2013 Rise Set
Actual Time 6:37 AM CDT 7:49 PM CDT
Civil Twilight 6:06 AM CDT 8:20 PM CDT
Nautical Twilight 5:29 AM CDT 8:56 PM CDT
Astronomical Twilight 4:50 AM CDT 9:35 PM CDT
Moon 3:49 AM CDT (9/2) 6:07 PM CDT (9/2)
Length of Visible Light 14h 13m
Length of Day
13h 12m
Waning Crescent, 8% of the Moon is Illuminated
Sep 2
Waning Crescent
Sep 5
New
Sep 12
First Quarter
Sep 19
Full
Sep 26
Last Quarter

Hourly Weather History & Observations

Time (CDT) Temp. Dew Point Humidity Pressure Visibility Wind Dir Wind Speed Gust Speed Precip Events Conditions
12:11 AM 53.6 °F 48.2 °F 82% 30.01 in 10.0 mi West 4.6 mph - N/A   Clear
12:31 AM 51.8 °F 48.2 °F 88% 30.01 in 10.0 mi West 3.5 mph - N/A   Clear
12:51 AM 50.0 °F 46.4 °F 87% 30.02 in 10.0 mi West 4.6 mph - N/A   Clear
1:11 AM 51.8 °F 48.2 °F 88% 30.02 in 10.0 mi West 4.6 mph - N/A   Mostly Cloudy
1:31 AM 51.8 °F 48.2 °F 88% 30.02 in 10.0 mi WNW 4.6 mph - N/A   Overcast
1:51 AM 53.6 °F 48.2 °F 82% 30.02 in 10.0 mi NW 3.5 mph - N/A   Overcast
2:11 AM 53.6 °F 48.2 °F 82% 30.02 in 10.0 mi NW 3.5 mph - N/A   Overcast
2:31 AM 53.6 °F 50.0 °F 88% 30.02 in 10.0 mi Calm Calm - N/A   Overcast
2:52 AM 53.6 °F 50.0 °F 88% 30.02 in 10.0 mi Calm Calm - N/A   Overcast
3:11 AM 55.4 °F 50.0 °F 82% 30.02 in 10.0 mi NNE 3.5 mph - N/A   Overcast
3:31 AM 55.4 °F 51.8 °F 88% 30.03 in 10.0 mi Calm Calm - N/A   Overcast
3:51 AM 55.4 °F 51.8 °F 88% 30.03 in 10.0 mi Calm Calm - N/A   Overcast
4:11 AM 55.4 °F 51.8 °F 88% 30.04 in 10.0 mi Calm Calm - N/A   Overcast
4:31 AM 55.4 °F 51.8 °F 88% 30.04 in 10.0 mi Calm Calm - N/A   Overcast
4:51 AM 55.4 °F 50.0 °F 82% 30.04 in 10.0 mi NNE 4.6 mph - N/A   Overcast
5:11 AM 55.4 °F 50.0 °F 82% 30.05 in 10.0 mi NNE 4.6 mph - N/A   Overcast
5:31 AM 55.4 °F 50.0 °F 82% 30.05 in 10.0 mi North 6.9 mph - N/A   Overcast
5:52 AM 55.4 °F 48.2 °F 77% 30.05 in 10.0 mi North 4.6 mph - N/A   Overcast
6:11 AM 55.4 °F 50.0 °F 82% 30.06 in 10.0 mi NNE 4.6 mph - N/A   Overcast
6:31 AM 55.4 °F 50.0 °F 82% 30.07 in 10.0 mi NNE 3.5 mph - N/A   Overcast
6:51 AM 55.4 °F 50.0 °F 82% 30.07 in 10.0 mi Calm Calm - N/A   Overcast
7:11 AM 55.4 °F 50.0 °F 82% 30.08 in 10.0 mi NNW 3.5 mph - N/A   Overcast
7:31 AM 55.4 °F 48.2 °F 77% 30.08 in 10.0 mi Calm Calm - N/A   Overcast
7:51 AM 55.4 °F 50.0 °F 82% 30.09 in 10.0 mi NNW 3.5 mph - N/A   Overcast
8:11 AM 55.4 °F 50.0 °F 82% 30.09 in 10.0 mi North 5.8 mph - N/A   Overcast
8:31 AM 55.4 °F 48.2 °F 77% 30.09 in 10.0 mi North 8.1 mph - N/A   Overcast
8:51 AM 55.4 °F 50.0 °F 82% 30.09 in 10.0 mi North 5.8 mph - N/A   Overcast
9:11 AM 55.4 °F 51.8 °F 88% 30.10 in 7.0 mi North 5.8 mph - N/A Rain Light Rain
9:31 AM 55.4 °F 51.8 °F 88% 30.11 in 5.0 mi NNW 5.8 mph - N/A   Overcast
9:51 AM 55.4 °F 51.8 °F 88% 30.11 in 3.0 mi NW 8.1 mph - N/A   Overcast
10:11 AM 55.4 °F 51.8 °F 88% 30.11 in 7.0 mi WNW 6.9 mph - N/A   Overcast
10:31 AM 57.2 °F 51.8 °F 82% 30.11 in 10.0 mi NNW 6.9 mph - N/A   Overcast
10:51 AM 55.4 °F 53.6 °F 94% 30.12 in 10.0 mi NNW 3.5 mph - N/A   Overcast
11:11 AM 55.4 °F 53.6 °F 94% 30.11 in 5.0 mi NW 8.1 mph - N/A   Light Drizzle
11:31 AM 57.2 °F 51.8 °F 82% 30.11 in 10.0 mi WNW 4.6 mph - N/A   Overcast
11:51 AM 59.0 °F 51.8 °F 77% 30.11 in 10.0 mi NNW 6.9 mph - N/A   Overcast
12:11 PM 60.8 °F 50.0 °F 68% 30.11 in 10.0 mi NW 8.1 mph - N/A   Overcast
12:31 PM 60.8 °F 50.0 °F 68% 30.11 in 10.0 mi WNW 6.9 mph - N/A   Overcast
12:51 PM 60.8 °F 50.0 °F 68% 30.11 in 10.0 mi NW 5.8 mph - N/A   Overcast
1:11 PM 60.8 °F 50.0 °F 68% 30.10 in 10.0 mi North 4.6 mph - N/A   Overcast
1:31 PM 60.8 °F 50.0 °F 68% 30.09 in 10.0 mi NW 4.6 mph - N/A   Overcast
1:51 PM 60.8 °F 51.8 °F 72% 30.09 in 10.0 mi North 3.5 mph - N/A   Overcast
2:11 PM 62.6 °F 51.8 °F 68% 30.09 in 10.0 mi North 8.1 mph - N/A   Overcast
2:31 PM 64.4 °F 51.8 °F 64% 30.08 in 10.0 mi North 8.1 mph - N/A   Overcast
2:51 PM 64.4 °F 50.0 °F 59% 30.08 in 10.0 mi NE 5.8 mph - N/A   Mostly Cloudy
3:11 PM 66.2 °F 50.0 °F 56% 30.08 in 10.0 mi NNE 6.9 mph - N/A   Mostly Cloudy
3:31 PM 64.4 °F 50.0 °F 59% 30.07 in 10.0 mi North 6.9 mph - N/A   Mostly Cloudy
3:52 PM 66.2 °F 50.0 °F 56% 30.07 in 7.0 mi NNW 4.6 mph - N/A   Clear
4:11 PM 66.2 °F 50.0 °F 56% 30.06 in 10.0 mi NNE 3.5 mph - N/A   Clear
4:31 PM 66.2 °F 50.0 °F 56% 30.06 in 10.0 mi NNW 4.6 mph - N/A   Clear
4:52 PM 66.2 °F 50.0 °F 56% 30.05 in 10.0 mi NW 3.5 mph - N/A   Clear
5:11 PM 68.0 °F 51.8 °F 56% 30.05 in 10.0 mi NNW 3.5 mph - N/A   Clear
5:31 PM 66.2 °F 50.0 °F 56% 30.05 in 10.0 mi NNW 3.5 mph - N/A   Clear
5:52 PM 68.0 °F 50.0 °F 52% 30.05 in 10.0 mi Calm Calm - N/A   Clear
6:11 PM 66.2 °F 50.0 °F 56% 30.05 in 10.0 mi Calm Calm - N/A   Clear
6:31 PM 66.2 °F 51.8 °F 60% 30.05 in 10.0 mi Calm Calm - N/A   Clear
6:51 PM 66.2 °F 50.0 °F 56% 30.05 in 10.0 mi Calm Calm - N/A   Clear
7:11 PM 64.4 °F 51.8 °F 64% 30.05 in 10.0 mi Calm Calm - N/A   Clear
7:31 PM 62.6 °F 51.8 °F 68% 30.05 in 10.0 mi ENE 3.5 mph - N/A   Clear
7:52 PM 60.8 °F 51.8 °F 72% 30.05 in 10.0 mi Calm Calm - N/A   Clear
8:11 PM 60.8 °F 51.8 °F 72% 30.04 in 10.0 mi NE 3.5 mph - N/A   Clear
8:31 PM 57.2 °F 50.0 °F 77% 30.05 in 10.0 mi Calm Calm - N/A   Clear
8:51 PM 53.6 °F 48.2 °F 82% 30.05 in 10.0 mi Calm Calm - N/A   Clear
9:11 PM 53.6 °F 48.2 °F 82% 30.05 in 10.0 mi Calm Calm - N/A   Clear
9:31 PM 51.8 °F 48.2 °F 88% 30.05 in 10.0 mi Calm Calm - N/A   Clear
9:51 PM 51.8 °F 48.2 °F 88% 30.06 in 10.0 mi Calm Calm - N/A   Clear
10:11 PM 48.2 °F 46.4 °F 93% 30.06 in 10.0 mi Calm Calm - N/A   Clear
10:31 PM 48.2 °F 46.4 °F 93% 30.06 in 10.0 mi Calm Calm - N/A   Clear
10:50 PM 48.2 °F 46.4 °F 93% 30.06 in 10.0 mi Calm Calm - N/A   Clear
11:11 PM 48.2 °F 46.4 °F 93% 30.06 in 10.0 mi Calm Calm - N/A   Clear
11:31 PM 48.2 °F 46.4 °F 93% 30.06 in 5.0 mi Calm Calm - N/A   Clear
11:51 PM 48.2 °F 46.4 °F 93% 30.06 in 10.0 mi Calm Calm - N/A   Clear